[[[{"header":{"parameterUnit":"kt","parameterCategory":2,"dx":1,"dy":1,"la1":30.253999710083008,"la2":30.299108505249023,"lo1":-89.0895004272461,"lo2":-89.04439544677734,"nx":28,"ny":28,"refTime":"2022-10-04T21:00:00:Z","depth":0,"parameterNumber":1,"parameterNumberName":"U-component_of_WINDS"},"data":[-3.8328,-3.8483,-3.8555,-3.8765,-3.8865,-3.902,-3.9098,-3.9206,-3.931,-3.9502,-3.9625,-3.9711,-3.9842,-4.0004,-4.0139,-4.0174,-4.0225,-4.023,-4.0269,-4.0188,-4.0181,-4.0175,-4.0143,-4.0241,-4.0241,-4.0342,-4.0343,-4.0344,-3.8267,-3.8368,-3.85,-3.8676,-3.8789,-3.883,-3.8972,-3.9063,-3.92,-3.9329,-3.9453,-3.9627,-3.9772,-3.9903,-4.0054,-4.0127,-4.0152,-4.0163,-4.0157,-4.0176,-4.0093,-4.0058,-4.014,-4.014,-4.014,-4.014,-4.014,-4.014,-3.8175,-3.8264,-3.8413,-3.8557,-3.8664,-3.8781,-3.8879,-3.8983,-3.9111,-3.9279,-3.9338,-3.9492,-3.9633,-3.9848,-3.9937,-4.0059,-4.0059,-4.0091,-4.0099,-4.0104,-4.0102,-3.9945,-4.0088,-4.0088,-4.0088,-4.0088,-4.0088,0,-3.8128,-3.8182,-3.8313,-3.8465,-3.8574,-3.8698,-3.8823,-3.8885,-3.902,-3.912,-3.927,-3.9368,-3.9561,-3.9708,-3.9864,-3.995,-3.9997,-4.001,-4.0032,-4.0004,-3.9961,-3.9984,-3.9844,-4.0003,-4.0003,-4.0003,-4.0002,-4.0002,-3.8038,-3.8135,-3.8323,-3.8405,-3.8491,-3.8621,-3.8713,-3.8825,-3.8917,-3.9086,-3.9158,-3.9309,-3.9434,-3.966,-3.9776,-3.9919,-3.9942,-3.9996,-3.9963,-3.9935,-3.9941,-3.9933,-3.9944,-3.9998,-3.9998,-3.9999,-3.9999,0,-3.7981,-3.8097,-3.8268,-3.8444,-3.8491,-3.8585,-3.8736,-3.8829,-3.8918,-3.9059,-3.9098,-3.9237,-3.938,-3.949,-3.9674,-3.9726,-3.9881,-3.9902,-3.9835,-3.9844,-3.9901,-3.9894,-4.0073,-4.0102,-4.0004,-4.0004,-4.0005,0,-3.7948,-3.8069,-3.8234,-3.8327,-3.8466,-3.8574,-3.8708,-3.8798,-3.8921,-3.9032,-3.9104,-3.9207,-3.9329,-3.9448,-3.9524,-3.9671,-3.9706,-3.9753,-3.9771,-3.9745,-3.9739,-3.9791,-3.9785,-3.981,-3.9809,-3.9809,-3.9808,0,-3.7844,-3.8073,-3.8226,-3.8296,-3.8494,-3.8563,-3.8648,-3.8785,-3.8872,-3.9003,-3.9061,-3.9205,-3.9283,-3.9393,-3.9489,-3.9463,-3.9671,-3.9655,-3.9719,-3.9716,-3.9755,-3.9751,-3.9886,-3.9806,-3.9806,-3.9806,-3.9806,0,-3.7833,-3.7966,-3.8169,-3.8336,-3.8391,-3.849,-3.864,-3.8751,-3.8889,-3.8945,-3.9048,-3.9107,-3.9244,-3.9221,-3.9412,-3.935,-3.9423,-3.9482,-3.9488,-3.9503,-3.9473,-3.9532,-3.9652,-3.9667,-3.9523,-3.9521,-3.9519,0,-3.7682,-3.7917,-3.8012,-3.8201,-3.8325,-3.8399,-3.8511,-3.8631,-3.8714,-3.883,-3.8921,-3.905,-3.9056,-3.9111,-3.9192,-3.9289,-3.9368,-3.9282,-3.9443,-3.9447,-3.9402,-3.9515,-3.9504,-3.9615,-3.949,-3.9493,-3.9495,0,-3.7577,-3.7817,-3.7844,-3.7928,-3.8106,-3.8208,-3.8337,-3.849,-3.8562,-3.8688,-3.8798,-3.8983,-3.8994,-3.9083,-3.9145,-3.9223,-3.9318,-3.9224,-3.9228,-3.9235,-3.9485,-3.9474,-3.9492,-3.9342,-3.9346,-3.9349,-3.9472,0,-3.7533,-3.7665,-3.7744,-3.7925,-3.8022,-3.8146,-3.8261,-3.8348,-3.8399,-3.8482,-3.8645,-3.8769,-3.8921,-3.897,-3.9018,-3.9163,-3.9154,-3.9164,-3.9145,-3.9219,-3.9262,-3.928,-3.9071,-3.9072,-3.9072,-3.9072,0,0,-3.7358,-3.7549,-3.7646,-3.7775,-3.7862,-3.7935,-3.8057,-3.815,-3.8333,-3.8391,-3.8383,-3.8659,-3.8758,-3.8943,-3.8975,-3.9036,-3.9072,-3.904,-3.9183,-3.9195,-3.9206,-3.9251,-3.9268,-3.9072,-3.9072,-3.9072,-3.9072,0,-3.7365,-3.747,-3.7591,-3.7692,-3.7845,-3.7928,-3.7957,-3.8119,-3.8178,-3.8338,-3.8391,-3.8502,-3.8717,-3.8816,-3.8894,-3.9023,-3.9054,-3.9061,-3.9092,-3.918,-3.9192,-3.9203,-3.9248,-3.9263,-3.9072,-3.9072,-3.9072,0,-3.7282,-3.7404,-3.7474,-3.7676,-3.7775,-3.7899,-3.791,-3.8039,-3.8131,-3.8198,-3.8354,-3.8437,-3.8577,-3.8737,-3.8812,-3.8806,-3.9032,-3.898,-3.8982,-3.8991,-3.9082,-3.9096,-3.9109,-3.8943,-3.8942,-3.8941,0,0,-3.7271,-3.7394,-3.7556,-3.7685,-3.7745,-3.7869,-3.7945,-3.8003,-3.8129,-3.8179,-3.8285,-3.8405,-3.8532,-3.8612,-3.8737,-3.8896,-3.8932,-3.8959,-3.8965,-3.897,-3.8981,-3.9073,-3.9087,-3.8938,-3.8938,-3.8938,0,0,-3.7265,-3.7459,-3.7489,-3.7653,-3.7773,-3.7939,-3.8013,-3.8051,-3.8175,-3.8173,-3.8273,-3.8309,-3.846,-3.8538,-3.848,-3.8731,-3.8711,-3.8727,-3.8674,-3.8683,-3.869,-3.8666,-3.8504,0,0,0,0,0,-3.733,-3.7436,-3.7461,-3.7505,-3.7758,-3.7926,-3.7959,-3.8046,-3.8031,-3.8088,-3.8183,-3.8212,-3.8528,-3.8479,-3.852,-3.8582,-3.8894,-3.8902,-3.8909,-3.8879,-3.8888,-3.8895,0,0,0,0,0,0,-3.7348,-3.7403,-3.7458,-3.7627,-3.7685,-3.7923,-3.7917,-3.7944,-3.8027,-3.8031,-3.8193,-3.8217,-3.8292,-3.8464,-3.8499,-3.8557,-3.8492,-3.8897,-3.8904,-3.891,-3.8882,-3.8889,-3.8895,0,0,0,0,0,-3.7363,-3.7407,-3.7789,-3.7626,-3.7676,-3.7818,-3.7913,-3.7936,-3.8002,-3.8148,-3.8173,-3.806,-3.8292,-3.8328,-3.8485,-3.8538,-3.8468,-3.8481,-3.8902,-3.8907,-3.8911,-3.8885,0,0,0,0,0,0,-3.7375,-3.7428,-3.7801,-3.782,-3.7592,-3.7806,-3.7843,-3.7929,-3.8115,-3.8141,-3.8019,-3.802,-3.8293,-3.832,-3.8348,-3.8527,-3.8448,-3.8461,-3.8469,-3.8905,-3.891,-3.8913,0,0,0,0,0,0,-3.7405,-3.7443,-3.7811,-3.7763,-3.7777,-3.7795,-3.7828,-3.7973,-3.8116,-3.7976,-3.7982,-3.8017,-3.825,-3.8316,-3.8337,-3.856,-3.8433,-3.8445,-3.8454,-3.846,-3.8909,-3.8912,0,0,0,0,0,0,-3.7423,-3.7455,-3.7759,-3.7769,-3.7781,-3.7995,-3.7925,-3.8177,-3.8078,-3.7966,-3.8072,-3.8068,-3.8245,-3.8268,-3.833,-3.8543,-3.8556,-3.8433,-3.8442,-3.8448,-3.8452,0,0,0,0,0,0,0,-3.7437,-3.7198,-3.7692,-3.7775,-3.7785,-3.799,-3.7995,-3.8,-3.8078,-3.8075,-3.8072,-3.807,-3.836,-3.8374,-3.8388,-3.8529,0,0,-3.8432,-3.8438,0,0,0,0,0,0,0,0,-3.7186,-3.7195,-3.7693,-3.7697,-3.7701,-3.7991,-3.7995,-3.7999,-3.8077,-3.8075,-3.8073,-3.8071,-3.8364,-3.8375,-3.8387,0,0,0,0,0,0,0,0,0,0,0,0,0,0,0,-3.7693,-3.7697,0,-3.7991,-3.7995,-3.7998,-3.8077,-3.8075,-3.8073,-3.8072,-3.8367,-3.8376,-3.8386,0,0,0,0,0,0,0,0,0,0,0,0,0,0,0,0,0,0,0,0,0,0,0,0,0,0,0,0,0,0,0,0,0,0,0,0,0,0,0,0,0,0,0,0,0,0,0,0,0,0,0,0,0,0,0,0,0,0,0,0,0,0,0,0,0,0,0,0,0]}],[{"header":{"parameterUnit":"kt","parameterCategory":2,"dx":1,"dy":1,"la1":30.253999710083008,"la2":30.299108505249023,"lo1":-89.0895004272461,"lo2":-89.04439544677734,"nx":28,"ny":28,"refTime":"2022-10-04T21:00:00:Z","depth":0,"parameterNumber":2,"parameterNumberName":"V-component_of_WINDS"},"data":[-2.7858,-2.7893,-2.7846,-2.7865,-2.7826,-2.783,-2.7817,-2.7795,-2.7765,-2.7765,-2.7757,-2.7714,-2.7667,-2.7646,-2.7635,-2.7616,-2.7616,-2.7661,-2.7631,-2.7468,-2.7442,-2.7418,-2.7407,-2.7661,-2.7661,-2.7808,-2.7809,-2.781,-2.774,-2.7701,-2.7697,-2.7662,-2.7658,-2.7585,-2.7551,-2.7553,-2.756,-2.7524,-2.7513,-2.751,-2.7502,-2.7437,-2.7422,-2.7437,-2.7403,-2.7437,-2.7436,-2.743,-2.7253,-2.7241,-2.7464,-2.7464,-2.7464,-2.7464,-2.7464,-2.7464,-2.7511,-2.7534,-2.7485,-2.7481,-2.745,-2.7427,-2.7441,-2.7387,-2.7383,-2.7361,-2.7306,-2.7313,-2.7268,-2.7227,-2.7202,-2.7206,-2.7161,-2.7184,-2.719,-2.7197,-2.7212,-2.7007,-2.7201,-2.72,-2.7199,-2.7199,-2.7198,0,-2.733,-2.7289,-2.7282,-2.7262,-2.7256,-2.7236,-2.721,-2.7217,-2.7115,-2.7117,-2.7114,-2.7106,-2.7088,-2.7082,-2.7057,-2.7025,-2.6952,-2.6939,-2.6955,-2.6983,-2.701,-2.6997,-2.6712,-2.6935,-2.6933,-2.6931,-2.693,-2.6929,-2.7097,-2.713,-2.7056,-2.7058,-2.7032,-2.7037,-2.703,-2.6937,-2.6934,-2.6889,-2.6914,-2.6906,-2.6895,-2.69,-2.6839,-2.6826,-2.6791,-2.6881,-2.6789,-2.6813,-2.6794,-2.6794,-2.6796,-2.6903,-2.6906,-2.6909,-2.6911,0,-2.697,-2.6893,-2.693,-2.6853,-2.6835,-2.6875,-2.681,-2.683,-2.6775,-2.6795,-2.6794,-2.671,-2.6711,-2.6633,-2.6619,-2.6579,-2.6643,-2.6608,-2.6657,-2.6646,-2.672,-2.6715,-2.6971,-2.7,-2.6734,-2.6737,-2.6739,0,-2.6742,-2.679,-2.6672,-2.6697,-2.6746,-2.6652,-2.6703,-2.6661,-2.6621,-2.6636,-2.6539,-2.6555,-2.6454,-2.6459,-2.64,-2.6438,-2.6435,-2.6408,-2.6392,-2.6418,-2.6421,-2.6417,-2.6406,-2.6354,-2.6352,-2.6351,-2.635,0,-2.6554,-2.6546,-2.6586,-2.6572,-2.6497,-2.6518,-2.6488,-2.6443,-2.6438,-2.6419,-2.6414,-2.6399,-2.6392,-2.6381,-2.6306,-2.6247,-2.6351,-2.6253,-2.6323,-2.6325,-2.6352,-2.6352,-2.6596,-2.6349,-2.6348,-2.6348,-2.6348,0,-2.6359,-2.634,-2.641,-2.6344,-2.6346,-2.6373,-2.6351,-2.6356,-2.6316,-2.628,-2.6265,-2.6192,-2.6219,-2.6127,-2.6163,-2.6106,-2.6104,-2.6079,-2.6083,-2.6083,-2.5984,-2.6133,-2.6372,-2.6395,-2.6079,-2.6077,-2.6075,0,-2.6163,-2.6213,-2.6133,-2.6202,-2.6214,-2.6103,-2.6131,-2.6099,-2.6053,-2.6057,-2.6006,-2.6013,-2.5928,-2.592,-2.5947,-2.5897,-2.597,-2.5884,-2.5893,-2.5895,-2.5908,-2.6126,-2.6182,-2.6327,-2.6045,-2.6048,-2.6051,0,-2.6003,-2.5911,-2.593,-2.5909,-2.5852,-2.5862,-2.5895,-2.5879,-2.5886,-2.5861,-2.5886,-2.5893,-2.583,-2.5818,-2.5757,-2.579,-2.5918,-2.5718,-2.5716,-2.5758,-2.6024,-2.6076,-2.6101,-2.587,-2.5873,-2.5876,-2.6027,0,-2.5726,-2.5742,-2.5787,-2.5748,-2.5744,-2.5783,-2.5701,-2.5707,-2.5648,-2.5599,-2.5635,-2.5591,-2.5578,-2.5585,-2.553,-2.563,-2.5602,-2.5535,-2.5442,-2.5586,-2.5633,-2.5653,-2.5377,-2.5374,-2.5371,-2.5369,0,0,-2.5559,-2.558,-2.5492,-2.552,-2.5511,-2.5397,-2.5446,-2.5424,-2.5385,-2.5381,-2.5328,-2.5333,-2.53,-2.5353,-2.5391,-2.5386,-2.5397,-2.5351,-2.5518,-2.5535,-2.555,-2.5603,-2.5624,-2.5364,-2.5363,-2.5362,-2.5361,0,-2.5441,-2.5408,-2.5457,-2.543,-2.5387,-2.5333,-2.5345,-2.5283,-2.5255,-2.5289,-2.5197,-2.5209,-2.5217,-2.5194,-2.5183,-2.5341,-2.5272,-2.5344,-2.5456,-2.5493,-2.5514,-2.5532,-2.5588,-2.561,-2.5355,-2.5355,-2.5355,0,-2.5269,-2.5223,-2.5238,-2.5212,-2.5184,-2.52,-2.5081,-2.5105,-2.5116,-2.4993,-2.503,-2.4995,-2.4958,-2.5019,-2.5044,-2.4996,-2.5163,-2.5097,-2.5112,-2.5114,-2.5146,-2.5171,-2.5193,-2.4903,-2.4901,-2.49,0,0,-2.5179,-2.5193,-2.5116,-2.5181,-2.5169,-2.509,-2.5091,-2.5033,-2.5001,-2.4989,-2.4943,-2.4916,-2.4919,-2.4924,-2.4923,-2.5002,-2.4987,-2.5044,-2.5066,-2.5083,-2.5095,-2.5133,-2.5157,-2.4896,-2.4895,-2.4895,0,0,-2.5136,-2.5048,-2.4995,-2.506,-2.5032,-2.4962,-2.5005,-2.4938,-2.4929,-2.4916,-2.4821,-2.481,-2.4866,-2.4836,-2.4782,-2.4889,-2.4799,-2.481,-2.4907,-2.4933,-2.4953,-2.496,-2.4656,0,0,0,0,0,-2.4974,-2.5058,-2.5011,-2.501,-2.4979,-2.4988,-2.4983,-2.4906,-2.4843,-2.4879,-2.4829,-2.4755,-2.4787,-2.4736,-2.4737,-2.48,-2.4835,-2.4845,-2.4856,-2.4998,-2.5026,-2.505,0,0,0,0,0,0,-2.4973,-2.4972,-2.5008,-2.4943,-2.4935,-2.4984,-2.486,-2.4841,-2.4837,-2.4822,-2.4766,-2.4753,-2.4688,-2.4731,-2.4733,-2.4793,-2.4655,-2.4839,-2.4848,-2.4856,-2.5008,-2.5031,-2.505,0,0,0,0,0,-2.4972,-2.497,-2.4941,-2.4941,-2.4934,-2.4851,-2.4856,-2.4839,-2.4835,-2.476,-2.4744,-2.4777,-2.4692,-2.4689,-2.4731,-2.4794,-2.4654,-2.4655,-2.4845,-2.4852,-2.4859,-2.5019,0,0,0,0,0,0,-2.4971,-2.4956,-2.4938,-2.4933,-2.4903,-2.4847,-2.4835,-2.4838,-2.4771,-2.4756,-2.4765,-2.4754,-2.4696,-2.4692,-2.469,-2.4799,-2.4652,-2.4653,-2.4654,-2.485,-2.4856,-2.4861,0,0,0,0,0,0,-2.4955,-2.4952,-2.4935,-2.4892,-2.4881,-2.4843,-2.4833,-2.4859,-2.4772,-2.478,-2.4769,-2.4761,-2.47,-2.4696,-2.4694,-2.4737,-2.4651,-2.4652,-2.4652,-2.4653,-2.4855,-2.4859,0,0,0,0,0,0,-2.4953,-2.495,-2.4893,-2.4885,-2.4875,-2.4814,-2.4865,-2.4838,-2.4734,-2.4785,-2.4722,-2.4717,-2.4706,-2.4701,-2.4697,-2.4742,-2.4738,-2.4651,-2.4651,-2.4652,-2.4652,0,0,0,0,0,0,0,-2.495,-2.4988,-2.4967,-2.4879,-2.487,-2.4887,-2.4886,-2.4885,-2.4732,-2.4728,-2.4723,-2.4719,-2.4645,-2.4646,-2.4647,-2.4745,0,0,-2.4651,-2.4651,0,0,0,0,0,0,0,0,-2.4987,-2.4988,-2.4967,-2.4966,-2.4965,-2.4887,-2.4886,-2.4885,-2.4732,-2.4728,-2.4724,-2.4721,-2.4645,-2.4646,-2.4647,0,0,0,0,0,0,0,0,0,0,0,0,0,0,0,-2.4967,-2.4966,0,-2.4887,-2.4886,-2.4885,-2.4731,-2.4728,-2.4725,-2.4722,-2.4645,-2.4646,-2.4647,0,0,0,0,0,0,0,0,0,0,0,0,0,0,0,0,0,0,0,0,0,0,0,0,0,0,0,0,0,0,0,0,0,0,0,0,0,0,0,0,0,0,0,0,0,0,0,0,0,0,0,0,0,0,0,0,0,0,0,0,0,0,0,0,0,0,0,0,0]}]]]